Location: Hong Kong
(22.2833°N, 114.1500°E)
Time: 14:27:03
(UTC+08:00)

ISS - Visible Passes

Search period start: 21 August 2019 00:00
Search period end: 31 August 2019 00:00
Orbit: 410 x 420 km, 51.6° (Epoch: 21 August)

Date Brightness Start Highest point End Pass type
(mag) Time Alt. Az. Time Alt. Az. Time Alt. Az.
22 Aug -2.0 05:24:36 10° S 05:27:32 29° SE 05:30:29 10° ENE visible
23 Aug -1.0 04:37:08 10° SSE 04:38:56 14° SE 04:40:43 10° E visible
24 Aug -3.6 05:23:44 13° SW 05:26:38 55° NW 05:29:54 10° NNE visible
25 Aug -3.5 04:37:33 55° SSE 04:37:53 59° SE 04:41:11 10° NE visible
26 Aug -0.6 03:51:15 15° ENE 03:51:15 15° ENE 03:52:01 10° ENE visible
26 Aug -1.7 05:24:10 11° WNW 05:25:53 15° NW 05:27:55 10° N visible
27 Aug -2.3 04:37:46 26° NNW 04:37:46 26° NNW 04:39:57 10° NNE visible
28 Aug -0.5 03:51:15 12° NNE 03:51:15 12° NNE 03:51:30 10° NNE visible
